This is the latest recevied weather packets stored in our database for station/object OK2ZAW-19. If no packets are shown the sender has not sent any weather packets the latest 1 day(s).
| Time | Temp. | Humidity | Pressure | Rain* | Wind** | Luminosity | Snow |
|---|---|---|---|---|---|---|---|
| 1777994181 | 28.89° C | 28% | 1006.7 hPa | - | 0.45 m/s, 315° | 338 W/m² | - |
| 1777993869 | 28.33° C | 29% | 1006.7 hPa | - | 0.45 m/s, 315° | 337 W/m² | - |
| 1777993556 | 28.33° C | 29% | 1006.8 hPa | - | 0.89 m/s, 315° | 337 W/m² | - |
| 1777993244 | 27.78° C | 31% | 1007 hPa | - | 0.89 m/s, 315° | 337 W/m² | - |
| 1777992932 | 27.78° C | 31% | 1007 hPa | - | 0.89 m/s, 315° | 337 W/m² | - |
| 1777992619 | 27.78° C | 31% | 1007 hPa | - | 0.89 m/s, 315° | 337 W/m² | - |
| 1777991682 | 27.22° C | 32% | 1007.2 hPa | - | 1.34 m/s, 315° | 337 W/m² | - |
| 1777991057 | 27.22° C | 32% | 1007.3 hPa | - | 0.45 m/s, 315° | 337 W/m² | - |
| 1777990433 | 26.67° C | 34% | 1007.5 hPa | - | 0.89 m/s, 315° | 337 W/m² | - |
| 1777990120 | 26.67° C | 35% | 1007.6 hPa | - | 0.45 m/s, 315° | 337 W/m² | - |
| 1777989808 | 26.67° C | 35% | 1007.7 hPa | - | 0.45 m/s, 315° | 337 W/m² | - |
| 1777989496 | 26.11° C | 35% | 1007.7 hPa | - | 0.89 m/s, 315° | 337 W/m² | - |
| 1777989184 | 26.11° C | 35% | 1007.8 hPa | - | 0.89 m/s, 315° | 337 W/m² | - |
| 1777988871 | 26.11° C | 35% | 1007.9 hPa | - | 1.34 m/s, 315° | 337 W/m² | - |
| 1777988559 | 26.67° C | 34% | 1007.9 hPa | - | 1.34 m/s, 315° | 338 W/m² | - |
| 1777988247 | 26.67° C | 35% | 1007.9 hPa | - | 0.45 m/s, 315° | 337 W/m² | - |
| 1777987935 | 26.67° C | 37% | 1008 hPa | - | 0.89 m/s, 315° | 337 W/m² | - |
| 1777987622 | 26.67° C | 35% | 1008 hPa | - | 0.45 m/s, 315° | 337 W/m² | - |
| 1777987310 | 26.11° C | 36% | 1008 hPa | - | 0.45 m/s, 315° | 337 W/m² | - |
| 1777986998 | 26.11° C | 39% | 1008.1 hPa | - | 0.45 m/s, 315° | 337 W/m² | - |
| 1777986374 | 25° C | 39% | 1008.1 hPa | - | 1.34 m/s, 315° | 336 W/m² | - |
| 1777986062 | 25° C | 40% | 1008.2 hPa | - | 0.89 m/s, 315° | 337 W/m² | - |
| 1777985437 | 25° C | 41% | 1008.2 hPa | - | 0.89 m/s, 315° | 338 W/m² | - |
| 1777985126 | 25° C | 42% | 1008.2 hPa | - | 0.89 m/s, 315° | 337 W/m² | - |
| 1777984501 | 24.44° C | 43% | 1008.4 hPa | - | 0.89 m/s, 315° | 337 W/m² | - |
* Rain since midnight (hover to see other rain measurements)
** Current wind speed in m/s (hover to see current wind gust speed)